Location: Buckenweiler
(49.0667°N, 10.2500°E)
Time: 23:57:46
(UTC+00:00)

Cosmos 2228 Rocket - Pass Details

Date: 18 January 2026
Orbit: 612 x 647 km, 82.5° (Epoch: 16 February)

Event Time Altitude Azimuth Distance (km) Brightness Sun altitude
Exits shadow 05:05:48 - 353° (N) 2,859 6.3 -19.1°
Reaches altitude 10° 05:07:58 10° 358° (N) 1,986 5.5 -18.8°
Maximum altitude 05:12:18 56° 77° (ENE) 733 3.7 -18.1°
Drops below altitude 10° 05:16:34 10° 156° (SSE) 1,965 6.1 -17.4°
Sets 05:18:49 0° 161° (SSE) 2,865 6.9 -17.0°
